PHSCH EHSE-EHLE

Flight info

Callsign PHSCH
Flight time N/A
Altitude 13000
Route PESER DCT KUDAD DCT LARAS DCT LEKKO DCT PAM DCT LILSI
Aircraft PC12/L-SDFGRWY/S

Departure

Time 2026-04-28 17:42
Airport Breda International Airport (EHSE)

Arrival

Time N/A
Airport Lelystad Airport (EHLE)
Time Latitude Longitude Altitude Speed Heading
2026-04-28 17:24 51.55523 4.54991 35 ft 0 kts 37°
2026-04-28 17:39 51.55513 4.54990 35 ft 2 kts 350°
2026-04-28 17:39 51.55488 4.54988 35 ft 0 kts 59°
2026-04-28 17:40 51.55479 4.55003 36 ft 8 kts 153°
2026-04-28 17:40 51.55434 4.54901 36 ft 17 kts 248°
2026-04-28 17:40 51.55407 4.54802 37 ft 11 kts 247°
2026-04-28 17:40 51.55373 4.54790 37 ft 4 kts 158°
2026-04-28 17:41 51.55364 4.54835 36 ft 3 kts 65°
2026-04-28 17:41 51.55364 4.54836 36 ft 0 kts 66°
2026-04-28 17:41 51.55418 4.55034 36 ft 47 kts 65°
2026-04-28 17:41 51.55582 4.55745 184 ft 74 kts 71°
2026-04-28 17:42 51.55714 4.56698 451 ft 101 kts 73°
2026-04-28 17:42 51.55821 4.57478 688 ft 111 kts 75°
2026-04-28 17:42 51.56275 4.59137 1030 ft 143 kts 50°
2026-04-28 17:42 51.57067 4.60149 1285 ft 150 kts 45°
2026-04-28 17:43 51.57870 4.61407 1161 ft 168 kts 49°
2026-04-28 17:43 51.58640 4.62835 1044 ft 170 kts 49°
2026-04-28 17:43 51.59354 4.64302 894 ft 167 kts 67°
2026-04-28 17:43 51.60265 4.65339 989 ft 175 kts 19°
2026-04-28 17:44 51.61471 4.65610 877 ft 177 kts 13°
2026-04-28 17:44 51.62639 4.64696 813 ft 205 kts 321°
2026-04-28 17:44 51.63621 4.63078 722 ft 207 kts 311°
2026-04-28 17:44 51.64325 4.61039 652 ft 210 kts 303°
2026-04-28 17:45 51.65090 4.58996 542 ft 202 kts 295°
2026-04-28 17:45 51.64928 4.56888 961 ft 204 kts 232°
2026-04-28 17:45 51.63838 4.55653 1168 ft 202 kts 198°
2026-04-28 17:45 51.62454 4.55173 931 ft 202 kts 170°
2026-04-28 17:46 51.61044 4.55244 743 ft 202 kts 176°
2026-04-28 17:46 51.59657 4.55385 446 ft 185 kts 162°
2026-04-28 17:46 51.59654 4.55386 448 ft 185 kts 162°
2026-04-28 17:48 51.58831 4.55545 693 ft 142 kts 166°
2026-04-28 17:49 51.57826 4.55729 476 ft 144 kts 165°